Flag for Canada Weather past 2 weeks in Burlington, Ontario, Canada

Now
69 °F

Mild.


Feels Like: 69 °F
Forecast: 60 / 74 °F
Wind: 2 mph from Southwest

Location: Burlington Piers

Current Time: Aug 28, 2015 at 11:10:34 PM

Latest Report: Aug 28, 2015 at 10:00 PM


Visibility: N/A

Pressure: 30.15 "Hg

Humidity: 72%

Dew point: 59 °F

Location of BurlingtonLocation

Historic Weather in Burlington — Graph

°F

Burlington temperature yesterday

Maximum temperature yesterday: 69 °F (at 6:00 PM)
Minimum temperature yesterday: 59 °F (at 6:00 AM)
Average temperature yesterday: 64 °F

Past Weeks' High & Low Weather Summary

 TemperatureHumidityPressure
High87 °F (Aug 17, 3:00 PM)97% (Aug 19, 7:00 AM)30.22 "Hg (Aug 19, 7:00 AM)
Low58 °F (Aug 28, 7:00 AM)43% (Aug 24, 2:00 PM)29.70 "Hg (Aug 20, 6:00 AM)
Average70 °F73%29.99 "Hg
* Reported Aug 13 10:00 PM — Aug 28 10:00 PM, Burlington, Weather by CustomWeather, © 2015

Note: Actual official high and low records may vary slightly from our data, if they occured in-between our weather recording intervals... More about our weather records

Advertising

Burlington weather history for previous 24 hours

 ConditionsComfort  
Time TempWeatherWind HumidityBarometerVisibility
10:00 PM
Fri, Aug 28
69 °FMild.2 mph72%30.15 "HgN/A
8:00 PM71 °FMild.7 mph63%30.14 "HgN/A
7:00 PM67 °FMild.9 mph79%30.14 "HgN/A
6:00 PM67 °FMild.10 mph75%30.14 "HgN/A
5:00 PM67 °FMild.12 mph70%30.14 "HgN/A
4:00 PM66 °FMild.13 mph76%30.15 "HgN/A
3:00 PM66 °FMild.13 mph73%30.17 "HgN/A
2:00 PM65 °FMild.10 mph74%30.18 "HgN/A
1:00 PM65 °FMild.10 mph71%30.19 "HgN/A
12:00 PM64 °FMild.7 mph74%30.21 "HgN/A
11:00 AM63 °FMild.5 mph73%30.21 "HgN/A
10:00 AM63 °FMild.3 mph68%30.21 "HgN/A
9:00 AM61 °FCool.3 mph75%30.22 "HgN/A
8:00 AM59 °FCool.5 mph80%30.21 "HgN/A
7:00 AM58 °FCool.5 mph82%30.20 "HgN/A
6:00 AM59 °FCool.3 mph84%30.18 "HgN/A
5:00 AM59 °FCool.1 mph78%30.16 "HgN/A
4:00 AM59 °FCool.5 mph76%30.15 "HgN/A
3:00 AM62 °FCool.5 mph68%30.15 "HgN/A
2:00 AM62 °FCool.1 mph73%30.16 "HgN/A
1:00 AM62 °FMild.No wind70%30.17 "HgN/A
12:00 AM62 °FCool.2 mph72%30.17 "HgN/A
11:00 PM
Thu, Aug 27
64 °FMild.2 mph69%30.17 "HgN/A
Weather by CustomWeather, © 2015

See weather overviewHow to use our weather pages